[[{"header":{"parameterUnit":"m.s-1","parameterCategory":1,"la1":30.2991,"la2":30.254,"lo1":-89.0895,"lo2":-89.0444,"dy":0.0017,"dx":0.0017,"nx":28,"ny":28,"refTime":"2023-08-15T21:00:00:Z","depth":0,"parameterNumber":2,"parameterNumberName":"U-component_of_WINDS"},"data":[0,0,0,0,0,0,0,0,0,0,0,0,0,0,0,0,0,0,0,0,0,0,0,0,0,0,0,0,0,0,0,0,0,0,0,0,0,0,0,0,0,0,0,0,0,0,0,0,0,0,0,0,0,0,0,0,0,0,2.0992,2.0991,0,2.0932,2.0931,2.093,2.0779,2.0776,2.0772,2.0769,2.0711,2.0712,2.0713,0,0,0,0,0,0,0,0,0,0,0,0,0,2.0977,2.0978,2.0992,2.0991,2.099,2.0932,2.0931,2.093,2.0779,2.0775,2.0772,2.0768,2.071,2.0712,2.0713,0,0,0,0,0,0,0,0,0,0,0,0,0,2.0957,2.0978,2.0992,2.0908,2.09,2.0932,2.0931,2.093,2.078,2.0775,2.0771,2.0766,2.071,2.0712,2.0714,2.0823,0,0,2.072,2.0721,0,0,0,0,0,0,0,0,2.0958,2.0958,2.0921,2.0914,2.0905,2.0858,2.0904,2.0894,2.0781,2.0826,2.0769,2.0764,2.0764,2.0761,2.076,2.082,2.0818,2.072,2.0722,2.0723,2.0723,0,0,0,0,0,0,0,2.096,2.0959,2.0968,2.0921,2.0911,2.0873,2.0865,2.0901,2.0823,2.0822,2.081,2.0805,2.0758,2.0759,2.0758,2.0817,2.072,2.0722,2.0724,2.0724,2.096,2.0965,0,0,0,0,0,0,2.0973,2.0961,2.097,2.0966,2.092,2.0878,2.0868,2.0878,2.0822,2.0808,2.0809,2.0798,2.0757,2.0756,2.0755,2.0877,2.0723,2.0725,2.0726,2.0955,2.0961,2.0967,0,0,0,0,0,0,2.0973,2.0975,2.0972,2.0961,2.0957,2.0883,2.0895,2.0879,2.0879,2.0812,2.0798,2.0824,2.0754,2.0752,2.0806,2.0873,2.0726,2.0728,2.0949,2.0957,2.0964,2.1123,0,0,0,0,0,0,2.0973,2.0976,2.1017,2.0963,2.0959,2.1025,2.0899,2.0881,2.0883,2.0868,2.0822,2.081,2.075,2.0804,2.0809,2.0873,2.0729,2.0943,2.0953,2.0962,2.1112,2.1135,2.1155,0,0,0,0,0,2.0973,2.1066,2.102,2.1022,2.1008,2.1029,2.1027,2.0954,2.0889,2.0929,2.0886,2.0812,2.0865,2.0811,2.0815,2.0881,2.0939,2.095,2.0961,2.1102,2.113,2.1155,0,0,0,0,0,0,2.1132,2.1057,2.1006,2.1083,2.1063,2.1003,2.1052,2.0988,2.0987,2.0973,2.0884,2.0875,2.0941,2.0916,2.0857,2.0982,2.089,2.0902,2.0995,2.1022,2.1044,2.1047,2.0731,0,0,0,0,0,2.1175,2.1198,2.1132,2.1207,2.1199,2.1128,2.1134,2.108,2.1056,2.1047,2.1008,2.0989,2.1,2.101,2.1018,2.1108,2.1094,2.1155,2.1177,2.1195,2.1206,2.1249,2.1274,2.1003,2.1003,2.1003,0,0,2.1266,2.1228,2.1249,2.1237,2.1216,2.1241,2.1122,2.1154,2.1172,2.1053,2.11,2.1071,2.1043,2.1115,2.1144,2.1096,2.1278,2.1209,2.1224,2.1226,2.1263,2.1289,2.1312,2.1011,2.101,2.1008,0,0,2.1444,2.1419,2.1476,2.1456,2.1424,2.1375,2.139,2.1339,2.1314,2.136,2.127,2.129,2.1313,2.1296,2.129,2.1459,2.139,2.1464,2.1578,2.1621,2.1642,2.166,2.1718,2.174,2.1476,2.1477,2.1477,0,2.1561,2.1595,2.1515,2.1551,2.1548,2.144,2.1497,2.1482,2.1455,2.1455,2.1401,2.1426,2.14,2.1464,2.1505,2.1505,2.1517,2.1468,2.1645,2.1663,2.1679,2.1733,2.1755,2.1486,2.1485,2.1484,2.1483,0,2.1739,2.1763,2.1814,2.1788,2.179,2.1838,2.1764,2.1777,2.1722,2.1679,2.1726,2.1691,2.1688,2.1699,2.1647,2.1756,2.1727,2.1661,2.1566,2.1715,2.1764,2.1784,2.1499,2.1495,2.1493,2.149,0,0,2.2015,2.1942,2.1962,2.1947,2.1903,2.192,2.1962,2.1957,2.1968,2.1953,2.1985,2.2006,2.1943,2.1937,2.1882,2.192,2.2052,2.1848,2.1846,2.1885,2.2167,2.2215,2.2241,2.2006,2.201,2.2013,2.2168,0,2.218,2.2245,2.2173,2.2254,2.2274,2.2171,2.2206,2.2183,2.2144,2.2155,2.2112,2.2127,2.2045,2.204,2.2073,2.2029,2.2107,2.2017,2.2034,2.2035,2.2042,2.2267,2.2318,2.2467,2.2187,2.219,2.2193,0,2.2381,2.2372,2.2455,2.2402,2.2408,2.2441,2.2429,2.2442,2.2413,2.2382,2.2374,2.2306,2.2343,2.2251,2.2299,2.224,2.2242,2.2222,2.2226,2.2223,2.2122,2.2268,2.2513,2.2534,2.2223,2.222,2.2218,0,2.2571,2.258,2.2629,2.2621,2.2561,2.2587,2.2563,2.2529,2.253,2.2521,2.252,2.2516,2.2513,2.2511,2.2444,2.2384,2.25,2.2403,2.2474,2.2475,2.2501,2.25,2.2748,2.2507,2.2507,2.2507,2.2506,0,2.2761,2.2815,2.2713,2.2744,2.28,2.2717,2.2775,2.2741,2.2711,2.2733,2.2644,2.2666,2.2577,2.259,2.2538,2.2584,2.2584,2.2559,2.2544,2.2566,2.2569,2.2565,2.2552,2.2512,2.2511,2.251,2.2509,0,2.2982,2.2917,2.2963,2.2902,2.2888,2.2932,2.288,2.2905,2.2859,2.2887,2.2889,2.2818,2.2828,2.2761,2.2759,2.2724,2.2795,2.2763,2.2804,2.2793,2.2867,2.286,2.3119,2.3147,2.2891,2.2894,2.2896,0,2.3107,2.3145,2.3088,2.3095,2.3075,2.3089,2.3088,2.3008,2.3011,2.2979,2.3008,2.301,2.3007,2.3028,2.2976,2.2974,2.2941,2.3031,2.294,2.2959,2.2939,2.2937,2.2939,2.305,2.3054,2.3056,2.3058,0,2.3335,2.3299,2.3301,2.3292,2.3294,2.3283,2.3266,2.3277,2.319,2.3198,2.3206,2.3204,2.32,2.3203,2.319,2.3166,2.3098,2.3088,2.3103,2.3125,2.3146,2.3133,2.2854,2.3082,2.3079,2.3078,2.3076,2.3075,2.3509,2.3537,2.35,2.3505,2.3483,2.3469,2.3488,2.3444,2.3449,2.3439,2.3391,2.3408,2.3375,2.335,2.3333,2.3344,2.33,2.3324,2.3329,2.3336,2.3348,2.3146,2.3342,2.3341,2.334,2.334,2.3339,0,2.3729,2.37,2.3705,2.3683,2.3687,2.3621,2.3598,2.3606,2.362,2.3596,2.3594,2.3602,2.3604,2.3552,2.3547,2.3566,2.3534,2.3567,2.3564,2.3559,2.3389,2.3374,2.3593,2.3593,2.3593,2.3593,2.3593,2.3593,2.3844,2.3887,2.3848,2.3878,2.3848,2.3862,2.3854,2.3841,2.382,2.3832,2.3833,2.3798,2.3762,2.3753,2.3752,2.3736,2.3738,2.3781,2.3755,2.3596,2.3572,2.3548,2.3534,2.3783,2.3783,2.3924,2.3926,2.3927]},{"header":{"parameterUnit":"m.s-1","parameterCategory":1,"la1":30.2991,"la2":30.254,"lo1":-89.0895,"lo2":-89.0444,"dy":0.0017,"dx":0.0017,"nx":28,"ny":28,"refTime":"2023-08-15T21:00:00:Z","depth":0,"parameterNumber":3,"parameterNumberName":"V-component_of_WINDS"},"data":[0,0,0,0,0,0,0,0,0,0,0,0,0,0,0,0,0,0,0,0,0,0,0,0,0,0,0,0,0,0,0,0,0,0,0,0,0,0,0,0,0,0,0,0,0,0,0,0,0,0,0,0,0,0,0,0,0,0,1.4386,1.4386,0,1.4367,1.4367,1.4367,1.428,1.4278,1.4276,1.4274,1.4256,1.4258,1.4259,0,0,0,0,0,0,0,0,0,0,0,0,0,1.4349,1.435,1.4386,1.4386,1.4386,1.4367,1.4367,1.4367,1.428,1.4278,1.4275,1.4273,1.4256,1.4257,1.4259,0,0,0,0,0,0,0,0,0,0,0,0,0,1.4351,1.435,1.4386,1.4341,1.4336,1.4367,1.4367,1.4367,1.4281,1.4278,1.4275,1.4272,1.4255,1.4257,1.4259,1.4334,0,0,1.4266,1.4267,0,0,0,0,0,0,0,0,1.4351,1.4353,1.4348,1.4344,1.4339,1.4323,1.4347,1.4356,1.4282,1.4302,1.4274,1.427,1.4281,1.4281,1.4284,1.4333,1.4332,1.4266,1.4267,1.4268,1.4269,0,0,0,0,0,0,0,1.4351,1.4353,1.4379,1.4348,1.4342,1.4321,1.4318,1.4348,1.4309,1.43,1.4294,1.4292,1.4278,1.4282,1.4283,1.4332,1.4266,1.4268,1.4269,1.427,1.4438,1.4441,0,0,0,0,0,0,1.4357,1.4353,1.4379,1.4378,1.4338,1.4324,1.4321,1.4331,1.4308,1.4302,1.4295,1.4288,1.428,1.4281,1.4282,1.4366,1.4268,1.427,1.4272,1.4435,1.4439,1.4442,0,0,0,0,0,0,1.4357,1.436,1.438,1.4364,1.4365,1.4328,1.434,1.4332,1.4336,1.4305,1.4297,1.4306,1.4278,1.4279,1.4321,1.4364,1.4271,1.4273,1.4431,1.4436,1.4441,1.4535,0,0,0,0,0,0,1.4356,1.4361,1.4389,1.4365,1.4366,1.4419,1.4343,1.4334,1.434,1.4331,1.4313,1.4307,1.4275,1.4318,1.4323,1.4365,1.4275,1.4427,1.4434,1.4439,1.4528,1.4542,1.4555,0,0,0,0,0,1.4355,1.4417,1.439,1.4394,1.44,1.4422,1.4423,1.4384,1.4344,1.4371,1.4351,1.4308,1.4359,1.4323,1.4328,1.4371,1.4424,1.4432,1.4439,1.4522,1.454,1.4555,0,0,0,0,0,0,1.4447,1.4413,1.4383,1.4439,1.4434,1.4407,1.4441,1.4404,1.4411,1.4403,1.4355,1.4351,1.44,1.439,1.4351,1.4441,1.4384,1.4393,1.4446,1.4462,1.4476,1.4477,1.4277,0,0,0,0,0,1.4474,1.4494,1.4463,1.4516,1.4515,1.4479,1.4487,1.4457,1.445,1.4448,1.443,1.4426,1.444,1.4451,1.4463,1.4526,1.452,1.4558,1.4572,1.4583,1.4591,1.4622,1.4638,1.4466,1.4466,1.4466,0,0,1.453,1.4513,1.453,1.4534,1.4526,1.4548,1.4477,1.4504,1.452,1.4452,1.449,1.4477,1.4468,1.4521,1.4543,1.4514,1.4637,1.4592,1.4601,1.4603,1.4631,1.4647,1.4662,1.4471,1.447,1.4469,0,0,1.4642,1.4633,1.4674,1.4667,1.4656,1.4632,1.4642,1.462,1.4609,1.4646,1.4595,1.4613,1.464,1.4635,1.4636,1.4745,1.4706,1.475,1.4821,1.4852,1.4865,1.4877,1.4915,1.4929,1.4758,1.4759,1.4759,0,1.4713,1.4744,1.47,1.473,1.4733,1.4671,1.4712,1.4708,1.4703,1.4706,1.4673,1.4704,1.4694,1.4744,1.477,1.4774,1.4783,1.4752,1.4867,1.4878,1.4889,1.4924,1.4938,1.4764,1.4763,1.4763,1.4762,0,1.483,1.4853,1.4887,1.4881,1.4888,1.4924,1.4886,1.4898,1.4868,1.4847,1.4885,1.487,1.4877,1.4887,1.4858,1.4933,1.4914,1.4875,1.4817,1.4911,1.4943,1.4957,1.4772,1.477,1.4768,1.4767,0,0,1.5001,1.4969,1.4983,1.4978,1.4961,1.4977,1.501,1.5016,1.5027,1.5024,1.505,1.5073,1.5036,1.5037,1.5007,1.5035,1.512,1.4992,1.4991,1.5015,1.52,1.5229,1.5245,1.5094,1.5096,1.5098,1.52,0,1.5107,1.516,1.5121,1.518,1.5199,1.514,1.5168,1.5161,1.5142,1.5155,1.5134,1.5151,1.5101,1.5101,1.5126,1.5105,1.5156,1.5097,1.5117,1.5118,1.512,1.5262,1.5293,1.5389,1.5212,1.5214,1.5216,0,1.5238,1.524,1.5301,1.5278,1.5284,1.531,1.5311,1.5325,1.5315,1.5299,1.53,1.5262,1.5292,1.5236,1.5275,1.5236,1.5242,1.5233,1.5235,1.5235,1.5172,1.5265,1.5419,1.5434,1.5236,1.5234,1.5233,0,1.5355,1.5373,1.5411,1.5409,1.5384,1.5403,1.5393,1.538,1.5385,1.5387,1.539,1.5395,1.5398,1.5403,1.5368,1.533,1.5412,1.5353,1.5399,1.54,1.5419,1.5418,1.5576,1.5424,1.5424,1.5424,1.5424,0,1.5477,1.5516,1.5462,1.5486,1.5528,1.5483,1.5526,1.551,1.5498,1.5518,1.5468,1.5487,1.544,1.5454,1.5427,1.5463,1.5465,1.5453,1.5445,1.5457,1.5458,1.546,1.5452,1.5428,1.5427,1.5426,1.5425,0,1.5614,1.558,1.5617,1.5589,1.5583,1.5615,1.5591,1.5612,1.5589,1.5614,1.5617,1.5581,1.5595,1.556,1.557,1.5551,1.5603,1.5585,1.5607,1.5601,1.5649,1.5644,1.5812,1.5831,1.5669,1.5671,1.5672,0,1.5694,1.5722,1.5696,1.5705,1.5698,1.5713,1.5718,1.5674,1.5681,1.5671,1.5693,1.5702,1.5708,1.5733,1.5708,1.5715,1.5696,1.5754,1.5697,1.5707,1.5695,1.5694,1.5696,1.5766,1.5768,1.577,1.5771,0,1.5838,1.5819,1.5827,1.583,1.5836,1.5836,1.5833,1.5843,1.5796,1.5807,1.582,1.5824,1.5833,1.5843,1.5843,1.5833,1.5795,1.5789,1.58,1.5812,1.5822,1.5816,1.5638,1.5785,1.5784,1.5783,1.5782,1.5781,1.5948,1.597,1.5954,1.5965,1.5957,1.5955,1.5972,1.595,1.596,1.5963,1.5937,1.5956,1.5944,1.594,1.5934,1.5948,1.5922,1.5938,1.5942,1.5946,1.5954,1.5821,1.5949,1.5948,1.5948,1.5947,1.5947,0,1.6088,1.6075,1.6085,1.6081,1.6089,1.6051,1.6044,1.6054,1.607,1.6062,1.6068,1.6082,1.6091,1.6067,1.6072,1.6088,1.607,1.6091,1.6089,1.6087,1.5978,1.5967,1.6105,1.6105,1.6105,1.6105,1.6105,1.6105,1.6163,1.6197,1.6176,1.6206,1.6193,1.6209,1.6209,1.6206,1.6199,1.6217,1.6224,1.6207,1.6192,1.6196,1.6202,1.6195,1.6199,1.6225,1.6212,1.611,1.6095,1.608,1.607,1.6227,1.6227,1.6319,1.632,1.6321]}]]